• în România
  • Lista ţărilor
  • Pe 7 zile
  • Temperatura apei
  • Hartă satelitară
  • Meteo pe hartă
  • Widget-uri
  • user-avatar
    Intrare

    Meteo pe oră la Suhaya Vyazovka

    Astăzi, 18 Octombrie, Joi

    Timp Temperatura Precipitaţii Vânt Presiune Umiditate
    00:00 +8°C° 0 mm 3 m/s 763 mmHg 74%
    01:00 +7°C° 0 mm 3 m/s 764 mmHg 76%
    02:00 +7°C° 0 mm 2 m/s 764 mmHg 78%
    03:00 +6°C° 0 mm 2 m/s 765 mmHg 80%
    04:00 +6°C° 0 mm 2 m/s 765 mmHg 81%
    05:00 +5°C° 0 mm 2 m/s 765 mmHg 81%
    06:00 +6°C° 0 mm 1 m/s 765 mmHg 82%
    07:00 +7°C° 0 mm 1 m/s 765 mmHg 76%
    08:00 +8°C° 0 mm 1 m/s 765 mmHg 69%
    09:00 +9°C° 0 mm 1 m/s 765 mmHg 63%
    10:00 +9°C° 0 mm 2 m/s 765 mmHg 57%
    11:00 +10°C° 0 mm 2 m/s 765 mmHg 52%
    12:00 +12°C° 0 mm 2 m/s 765 mmHg 46%
    13:00 +12°C° 0 mm 2 m/s 765 mmHg 45%
    14:00 +13°C° 0 mm 2 m/s 764 mmHg 44%
    15:00 +13°C° 0 mm 2 m/s 764 mmHg 43%
    16:00 +12°C° 0 mm 2 m/s 764 mmHg 47%
    17:00 +10°C° 0 mm 2 m/s 764 mmHg 52%
    18:00 +8°C° 0 mm 2 m/s 764 mmHg 56%
    19:00 +8°C° 0 mm 2 m/s 764 mmHg 58%
    20:00 +8°C° 0 mm 2 m/s 764 mmHg 60%
    21:00 +8°C° 0 mm 3 m/s 763 mmHg 62%
    22:00 +7°C° 0 mm 3 m/s 763 mmHg 63%
    23:00 +7°C° 0 mm 3 m/s 763 mmHg 64%

    Mâine, 19 Octombrie, Vineri

    Timp Temperatura Precipitaţii Vânt Presiune Umiditate
    00:00 +7°C° 0 mm 3 m/s 763 mmHg 65%
    01:00 +6°C° 0 mm 4 m/s 763 mmHg 66%
    02:00 +6°C° 0 mm 4 m/s 762 mmHg 67%
    03:00 +6°C° 0 mm 4 m/s 762 mmHg 68%
    04:00 +6°C° 0 mm 4 m/s 762 mmHg 70%
    05:00 +6°C° 0 mm 4 m/s 762 mmHg 71%
    06:00 +6°C° 0 mm 4 m/s 761 mmHg 72%
    07:00 +7°C° 0 mm 5 m/s 761 mmHg 70%
    08:00 +9°C° 0 mm 5 m/s 761 mmHg 67%
    09:00 +10°C° 0 mm 5 m/s 761 mmHg 64%
    10:00 +11°C° 0 mm 6 m/s 761 mmHg 62%
    11:00 +14°C° 0 mm 6 m/s 761 mmHg 59%
    12:00 +15°C° 0 mm 6 m/s 760 mmHg 56%
    13:00 +16°C° 0 mm 6 m/s 760 mmHg 56%
    14:00 +16°C° 0 mm 6 m/s 760 mmHg 56%
    15:00 +16°C° 0 mm 6 m/s 760 mmHg 55%
    16:00 +15°C° 0 mm 5 m/s 760 mmHg 60%
    17:00 +14°C° 0 mm 5 m/s 759 mmHg 64%
    18:00 +12°C° 0 mm 4 m/s 759 mmHg 69%
    19:00 +12°C° 0 mm 4 m/s 759 mmHg 69%
    20:00 +12°C° 0 mm 4 m/s 759 mmHg 69%
    21:00 +10°C° 0 mm 5 m/s 759 mmHg 69%
    22:00 +10°C° 0 mm 5 m/s 759 mmHg 69%
    23:00 +10°C° 0 mm 5 m/s 759 mmHg 69%

    Poimâine, 20 Octombrie, Sâmbătă

    Timp Temperatura Precipitaţii Vânt Presiune Umiditate
    00:00 +10°C° 0 mm 5 m/s 758 mmHg 68%
    01:00 +9°C° 0 mm 5 m/s 758 mmHg 68%
    02:00 +9°C° 0 mm 5 m/s 758 mmHg 67%
    03:00 +9°C° 0 mm 5 m/s 758 mmHg 66%
    04:00 +8°C° 0 mm 5 m/s 757 mmHg 65%
    05:00 +8°C° 0 mm 5 m/s 757 mmHg 65%
    06:00 +8°C° 0 mm 5 m/s 757 mmHg 64%
    07:00 +9°C° 0 mm 5 m/s 757 mmHg 61%
    08:00 +10°C° 0 mm 6 m/s 757 mmHg 58%
    09:00 +11°C° 0 mm 6 m/s 757 mmHg 55%
    10:00 +13°C° 0 mm 6 m/s 756 mmHg 54%
    11:00 +14°C° 0 mm 6 m/s 756 mmHg 52%
    12:00 +15°C° 0 mm 6 m/s 756 mmHg 51%
    13:00 +15°C° 0 mm 6 m/s 756 mmHg 55%
    14:00 +14°C° 0 mm 5 m/s 756 mmHg 60%
    15:00 +14°C° 0 mm 5 m/s 756 mmHg 64%
    16:00 +13°C° 0 mm 4 m/s 757 mmHg 70%
    17:00 +12°C° 0 mm 4 m/s 757 mmHg 75%
    18:00 +11°C° 0 mm 3 m/s 757 mmHg 80%
    19:00 +10°C° 0 mm 3 m/s 758 mmHg 81%
    20:00 +9°C° 0 mm 2 m/s 758 mmHg 81%
    21:00 +8°C° 0 mm 2 m/s 758 mmHg 81%
    22:00 +7°C° 0 mm 2 m/s 759 mmHg 82%
    23:00 +7°C° 0 mm 2 m/s 759 mmHg 82%

    21 Octombrie, Duminică

    Timp Temperatura Precipitaţii Vânt Presiune Umiditate
    00:00 +6°C° 0 mm 2 m/s 759 mmHg 82%
    01:00 +7°C° 0 mm 1 m/s 759 mmHg 84%
    02:00 +7°C° 0 mm 1 m/s 759 mmHg 85%
    03:00 +6°C° 0 mm 1 m/s 760 mmHg 86%
    04:00 +6°C° 0 mm 1 m/s 760 mmHg 86%
    05:00 +6°C° 0 mm 1 m/s 760 mmHg 87%
    06:00 +5°C° 0 mm 1 m/s 760 mmHg 87%
    07:00 +7°C° 0 mm 1 m/s 760 mmHg 80%
    08:00 +8°C° 0 mm 1 m/s 761 mmHg 74%
    09:00 +9°C° 0 mm 1 m/s 761 mmHg 67%
    10:00 +9°C° 0 mm 2 m/s 761 mmHg 62%
    11:00 +10°C° 0 mm 2 m/s 761 mmHg 58%
    12:00 +12°C° 0 mm 2 m/s 761 mmHg 53%
    13:00 +12°C° 0 mm 2 m/s 761 mmHg 53%
    14:00 +12°C° 0 mm 2 m/s 761 mmHg 53%
    15:00 +12°C° 0 mm 2 m/s 761 mmHg 53%
    16:00 +10°C° 0 mm 2 m/s 762 mmHg 57%
    17:00 +9°C° 0 mm 2 m/s 762 mmHg 62%
    18:00 +8°C° 0 mm 2 m/s 762 mmHg 67%
    19:00 +7°C° 0 mm 2 m/s 763 mmHg 70%
    20:00 +7°C° 0 mm 2 m/s 763 mmHg 72%
    21:00 +6°C° 0 mm 2 m/s 763 mmHg 75%
    22:00 +6°C° 0 mm 2 m/s 763 mmHg 77%
    23:00 +5°C° 0 mm 2 m/s 763 mmHg 80%

    22 Octombrie, Luni

    Timp Temperatura Precipitaţii Vânt Presiune Umiditate
    00:00 +5°C° 0 mm 2 m/s 764 mmHg 82%
    01:00 +5°C° 0 mm 2 m/s 764 mmHg 84%
    02:00 +4°C° 0 mm 2 m/s 764 mmHg 86%
    03:00 +4°C° 0 mm 2 m/s 764 mmHg 88%
    04:00 +4°C° 0 mm 2 m/s 764 mmHg 89%
    05:00 +3°C° 0 mm 2 m/s 764 mmHg 90%
    06:00 +3°C° 0 mm 2 m/s 764 mmHg 91%
    07:00 +4°C° 0 mm 2 m/s 764 mmHg 85%
    08:00 +5°C° 0 mm 2 m/s 765 mmHg 79%
    09:00 +6°C° 0 mm 2 m/s 765 mmHg 73%
    10:00 +7°C° 0 mm 2 m/s 765 mmHg 67%
    11:00 +9°C° 0 mm 1 m/s 764 mmHg 62%
    12:00 +10°C° 0 mm 1 m/s 764 mmHg 56%
    13:00 +10°C° 0 mm 1 m/s 764 mmHg 55%
    14:00 +10°C° 0 mm 1 m/s 764 mmHg 53%
    15:00 +11°C° 0 mm 1 m/s 764 mmHg 52%
    16:00 +9°C° 0 mm 1 m/s 764 mmHg 57%
    17:00 +8°C° 0 mm 1 m/s 764 mmHg 62%
    18:00 +7°C° 0 mm 1 m/s 764 mmHg 66%
    19:00 +7°C° 0 mm 1 m/s 763 mmHg 68%
    20:00 +6°C° 0 mm 1 m/s 763 mmHg 70%
    21:00 +6°C° 0 mm 1 m/s 763 mmHg 72%
    22:00 +6°C° 0 mm 1 m/s 763 mmHg 73%
    23:00 +5°C° 0 mm 1 m/s 763 mmHg 75%

    23 Octombrie, Marţi

    Timp Temperatura Precipitaţii Vânt Presiune Umiditate
    00:00 +5°C° 0 mm 1 m/s 763 mmHg 76%
    01:00 +5°C° 0 mm 1 m/s 763 mmHg 78%
    02:00 +5°C° 0 mm 1 m/s 762 mmHg 79%
    03:00 +4°C° 0 mm 1 m/s 762 mmHg 81%
    04:00 +3°C° 0 mm 2 m/s 762 mmHg 82%
    05:00 +3°C° 0 mm 2 m/s 762 mmHg 84%
    06:00 +3°C° 0 mm 2 m/s 762 mmHg 85%
    07:00 +4°C° 0 mm 2 m/s 762 mmHg 79%
    08:00 +5°C° 0 mm 2 m/s 762 mmHg 73%
    09:00 +7°C° 0 mm 3 m/s 762 mmHg 67%
    10:00 +8°C° 0 mm 3 m/s 762 mmHg 61%
    11:00 +9°C° 0 mm 3 m/s 761 mmHg 55%
    12:00 +11°C° 0 mm 3 m/s 761 mmHg 49%
    13:00 +11°C° 0 mm 3 m/s 761 mmHg 48%
    14:00 +11°C° 0 mm 3 m/s 760 mmHg 47%
    15:00 +11°C° 0 mm 3 m/s 760 mmHg 47%
    16:00 +10°C° 0 mm 2 m/s 760 mmHg 49%
    17:00 +10°C° 0 mm 2 m/s 760 mmHg 52%
    18:00 +9°C° 0 mm 2 m/s 760 mmHg 54%
    19:00 +9°C° 0 mm 2 m/s 760 mmHg 55%
    20:00 +8°C° 0 mm 2 m/s 760 mmHg 55%
    21:00 +8°C° 0 mm 2 m/s 760 mmHg 56%
    22:00 +8°C° 0 mm 2 m/s 760 mmHg 57%
    23:00 +8°C° 0 mm 2 m/s 760 mmHg 58%
    Arată mai mult